PU2ONU-13 Weather Reports


time (UTC)temp
C
wind
direction
speed
KPH
gust
KPH
rain 1hr
cm
rain 24hr
cm
rain mn
cm
humidity
%
barometer
mb
20260505124013 27 10 1.6 1.6 0.00 0.00 0.00 49 1022.0
20260505122013 27 29 1.6 1.6 0.00 0.00 0.00 46 1022.0
20260505120012 28 29 1.6 1.6 0.00 0.00 0.00 44 1021.0
20260505114013 28 33 1.6 1.6 0.00 0.00 0.00 45 1021.0
20260505112014 27 59 1.6 1.6 0.00 0.00 0.00 44 1022.0
20260505102012 26 77 1.6 1.6 0.00 0.00 0.00 46 1022.0
20260505100013 26 77 1.6 1.6 0.00 0.00 0.00 46 1021.0
20260505094019 25 77 1.6 1.6 0.00 0.00 0.00 48 1021.0
20260505092013 26 79 1.6 1.6 0.00 0.00 0.00 46 1021.0
20260505090013 26 79 1.6 1.6 0.00 0.00 0.00 45 1020.0
20260505084013 26 79 1.6 1.6 0.00 0.00 0.00 45 1020.0
20260505082012 26 84 1.6 1.6 0.00 0.00 0.00 45 1021.0
20260505074012 26 84 1.6 1.6 0.00 0.00 0.00 47 1020.0
20260505072013 26 97 1.6 1.6 0.00 0.00 0.00 46 1021.0
20260505070012 26 97 1.6 1.6 0.00 0.00 0.00 47 1020.0
20260505064013 27 97 1.6 1.6 0.00 0.00 0.00 45 1020.0
20260505062013 27 96 1.6 1.6 0.00 0.00 0.00 45 1021.0
20260505060013 27 96 1.6 1.6 0.00 0.00 0.00 46 1020.0
20260505054013 27 80 1.6 1.6 0.00 0.00 0.00 44 1020.0
20260505052014 27 83 1.6 1.6 0.00 0.00 0.00 45 1021.0
20260505040013 28 94 1.6 1.6 0.00 0.00 0.00 44 1020.0
20260505034013 28 94 1.6 1.6 0.00 0.00 0.00 43 1020.0
20260505032013 28 95 1.6 1.6 0.00 0.00 0.00 43 1021.0
20260505030013 28 95 1.6 1.6 0.00 0.00 0.00 44 1020.0
20260505024013 28 95 1.6 1.6 0.00 0.00 0.00 43 1020.0
20260505022012 28 89 1.6 1.6 0.00 0.00 0.00 43 1021.0
20260505014014 29 89 1.6 1.6 0.00 0.00 0.00 44 1020.0
20260505012013 29 87 1.6 1.6 0.00 0.00 0.00 42 1021.0
20260505010013 30 87 1.6 1.6 0.00 0.00 0.00 42 1020.0
20260505004013 30 87 1.6 1.6 0.00 0.00 0.00 42 1020.0
20260505000013 30 89 1.6 3.2 0.00 0.00 0.00 42 1019.0
20260504234013 30 100 1.6 3.2 0.00 0.00 0.00 41 1019.0
20260504232013 31 90 1.6 3.2 0.00 0.00 0.00 41 1020.0
20260504230013 31 90 1.6 3.2 0.00 0.00 0.00 41 1019.0
20260504224013 31 90 1.6 3.2 0.00 0.00 0.00 41 1019.0
20260504222014 31 89 1.6 3.2 0.00 0.00 0.00 40 1019.0
20260504220013 31 89 1.6 3.2 0.00 0.00 0.00 41 1018.0
20260504214012 31 89 1.6 3.2 0.00 0.00 0.00 40 1018.0
20260504210013 32 71 1.6 1.6 0.00 0.00 0.00 39 1017.0
20260504204012 31 71 1.6 1.6 0.00 0.00 0.00 41 1017.0
20260504202013 31 18 1.6 1.6 0.00 0.00 0.00 38 1017.0
20260504194013 30 18 1.6 1.6 0.00 0.00 0.00 37 1016.0
20260504192014 30 340 0.0 1.6 0.00 0.00 0.00 38 1018.0
20260504190014 30 340 1.6 3.2 0.00 0.00 0.00 38 1016.0
20260504184013 30 333 0.0 0.0 0.00 0.00 0.00 38 1016.0
20260504182013 30 333 1.6 1.6 0.00 0.00 0.00 38 1018.0
20260504180015 29 333 3.2 4.8 0.00 0.00 0.00 40 1017.0
20260504174016 29 322 0.0 0.0 0.00 0.00 0.00 41 1017.0
20260504172013 29 322 1.6 1.6 0.00 0.00 0.00 40 1018.0